Cloud_Cover
100 81 44 4 0 0 0 0 0 0 0 0 0 0 0 0 0 0 0 0 0 4 0 3 100 100 100 100 100 100 90 97 100 100 100 100 100 100 100 100 100 100 100 100
100 100 63 4 0 0 0 0 0 0 0 0 0 0 0 0 0 0 0 0 0 6 4 0 4 68 100 100 100 78 81 93 90 100 100 100 100 100 100 100 100 100 100 100
91 100 100 4 0 4 5 0 0 0 0 0 0 0 0 0 0 0 0 0 0 0 56 5 1 21 100 100 100 100 100 100 100 100 100 100 100 100 100 100 100 100 100 100
100 100 67 0 0 0 1 2 5 5 2 0 2 0 0 0 0 0 0 0 0 0 0 8 3 14 100 100 100 100 100 100 100 100 100 100 100 100 100 100 100 100 100 100
100 100 100 5 1 0 2 5 5 5 5 0 5 0 0 0 0 0 0 0 0 0 4 0 30 75 100 95 100 100 100 100 100 100 100 100 100 100 100 100 100 100 100 100
100 100 99 5 5 5 5 5 5 5 5 2 6 0 0 0 0 0 0 0 0 0 0 4 10 100 100 100 100 100 100 100 100 100 100 100 100 100 100 100 100 100 100 100
100 82 24 5 5 5 5 5 5 5 28 0 1 0 0 0 0 0 0 0 0 0 0 0 5 69 100 100 100 100 100 100 100 100 100 100 100 100 100 100 100 100 96 98
86 5 5 5 5 5 5 7 31 4 0 0 0 0 0 0 0 2 0 0 0 0 0 0 0 5 100 100 100 100 100 100 100 100 100 100 100 100 99 100 100 100 100 92
1 2 5 5 5 6 35 5 20 5 40 1 0 0 0 0 0 0 5 1 0 0 0 0 0 2 5 96 100 100 100 100 100 100 100 100 100 100 100 98 77 93 100 100
5 0 5 5 5 11 5 5 5 5 36 65 0 0 0 3 1 2 1 44 2 1 5 5 5 5 5 35 99 100 100 100 100 100 100 100 100 100 100 100 98 93 97 70
5 5 5 5 5 5 5 5 27 96 74 94 54 3 0 0 1 5 23 18 19 16 6 23 91 85 100 99 96 100 100 100 100 100 100 100 100 100 100 100 100 100 89 94
66 5 5 5 5 5 5 5 22 100 100 100 100 1 5 4 5 5 11 100 100 100 75 17 5 91 17 28 74 100 100 100 100 100 100 100 100 100 100 100 100 100 100 100
14 5 4 0 5 4 5 5 97 100 100 97 100 5 75 92 100 90 100 95 63 5 5 5 7 25 13 85 9 2 58 100 100 98 100 100 100 100 100 100 100 100 100 100
5 5 5 5 68 25 5 9 100 100 100 100 95 93 100 100 99 67 19 4 5 5 5 5 12 74 54 74 52 83 5 5 71 86 21 98 100 100 100 100 100 100 100 100
57 6 5 5 99 80 5 5 48 100 100 100 96 100 100 100 100 13 5 5 5 5 4 5 5 5 11 21 66 44 70 66 6 5 5 5 18 100 100 100 100 100 100 100
46 56 30 5 88 28 6 5 99 100 100 100 100 100 100 100 99 77 5 2 0 3 5 5 5 5 4 5 5 5 5 5 80 84 13 5 5 5 84 100 100 77 99 100
100 100 100 5 38 51 1 50 95 100 100 100 100 100 100 100 100 95 30 5 5 5 1 0 0 4 4 1 1 5 2 5 5 13 90 72 19 5 5 5 85 96 20 85
100 100 100 56 40 55 3 4 66 98 100 100 100 100 100 100 98 19 13 95 100 7 5 2 2 2 2 2 5 5 5 5 5 5 5 5 17 34 5 5 5 6 48 80
14 99 100 100 100 14 7 41 27 99 11 55 98 100 100 94 30 61 89 31 5 5 0 1 2 5 4 5 5 5 5 5 5 5 5 5 5 5 5 5 5 5 5 6
78 100 100 100 100 92 4 20 6 13 0 13 12 5 5 47 30 96 99 97 79 5 5 5 5 5 5 5 5 5 5 5 5 5 4 5 5 5 5 5 5 5 5 5
78 100 100 100 100 44 6 100 58 89 32 29 2 5 5 5 5 10 21 21 9 5 5 5 5 5 5 5 5 5 5 5 0 2 5 5 5 5 5 5 5 5 5 5
5 21 57 100 100 82 73 100 100 100 100 5 5 18 5 4 2 3 4 5 5 5 5 5 5 5 5 5 5 5 4 5 5 2 5 5 5 5 5 5 5 5 5 5
1 1 61 100 100 100 100 100 100 100 88 25 23 86 100 91 34 20 23 5 5 5 5 5 5 3 0 0 5 5 5 5 5 3 4 5 5 5 5 5 5 5 5 5
0 4 62 99 3 100 100 100 100 100 100 100 100 100 100 100 83 10 6 16 16 13 49 8 5 5 5 5 5 5 5 5 5 55 9 5 5 3 5 5 5 5 5 5
5 22 17 6 18 48 91 96 100 100 100 100 100 100 100 100 100 100 100 100 98 94 98 96 75 60 65 44 11 5 5 5 5 5 40 82 24 5 5 5 5 5 5 5
5 22 87 98 100 100 75 100 100 98 98 100 100 100 100 100 99 88 95 92 73 69 99 100 100 96 92 84 78 68 38 17 5 5 5 34 100 94 51 22 5 5 5 5